Austin, TX

12:13 AM CST on February 25, 2017 (GMT -0600)
Austin

Weather History for KATT - April, 2013

Change the Weather History Date:

Wednesday, April 10, 2013

  Actual Average Record
Temperature  
Mean Temperature 60 °F 68 °F  
Max Temperature 74 °F 79 °F 94 °F (1963)
Min Temperature 45 °F 57 °F 34 °F (1938)
Degree Days  
Heating Degree Days 5 2  
Month to date heating degree days 36 22  
Since 1 July heating degree days 1196 1521  
Cooling Degree Days 0 5  
Month to date cooling degree days 41 40  
Year to date cooling degree days 168 128  
Growing Degree Days 8 (Base 50)    
Moisture  
Dew Point 49 °F    
Average Humidity 77    
Maximum Humidity 93    
Minimum Humidity 61    
Precipitation  
Precipitation 0.30 in 0.06 in 1.55 in (1978)
Month to date precipitation 2.76 0.62  
Year to date precipitation 7.19 7.62  
Snow  
Snow 0.00 in - - ()
Month to date snowfall 0.0  
Since 1 July snowfall T  
Snow Depth 0.00 in    
Sea Level Pressure  
Sea Level Pressure 29.83 in    
Wind  
Wind Speed 10 mph (NNW)    
Max Wind Speed 20 mph    
Max Gust Speed 30 mph    
Visibility 8 miles    
Events Rain    
T = Trace of Precipitation, MM = Missing Value Source: NWS Daily Summary

Daily Weather History Graph

Daily Weather History Graph

Search for Another Location

Airport or City:

Trip Planner

Search our weather history database for the weather conditions in past years. The results will help you decide how hot, cold, wet, or windy it might be!

Date:

Astronomy

Apr. 10, 2013 Rise Set
Actual Time 7:09 AM CDT 7:55 PM CDT
Civil Twilight 6:44 AM CDT 8:20 PM CDT
Nautical Twilight 6:16 AM CDT 8:49 PM CDT
Astronomical Twilight 5:46 AM CDT 9:18 PM CDT
Moon 7:08 AM CDT (4/10) 8:28 PM CDT (4/10)
Length of Visible Light 13h 35m
Length of Day
12h 46m
New Moon, 0% of the Moon is Illuminated
Apr 10
New Moon
Apr 18
First Quarter
Apr 25
Full
May 2
Last Quarter
May 9
New

Hourly Weather History & Observations

Time (CDT) Temp. Windchill Dew Point Humidity Pressure Visibility Wind Dir Wind Speed Gust Speed Precip Events Conditions
12:51 AM 73.9 °F - 68.0 °F 82% 29.68 in 7.0 mi SE 15.0 mph 23.0 mph N/A   Overcast
1:51 AM 73.9 °F - 68.0 °F 82% 29.67 in 7.0 mi SSE 16.1 mph 25.3 mph N/A   Overcast
2:51 AM 73.0 °F - 68.0 °F 84% 29.65 in 8.0 mi SSE 10.4 mph 20.7 mph N/A   Overcast
3:51 AM 73.0 °F - 68.0 °F 84% 29.63 in 7.0 mi SSE 13.8 mph 24.2 mph N/A   Overcast
4:03 AM 73.0 °F - 68.0 °F 84% 29.66 in 7.0 mi SSE 10.4 mph 27.6 mph N/A   Overcast
4:22 AM 73.0 °F - 66.9 °F 81% 29.65 in 8.0 mi SSE 15.0 mph 23.0 mph N/A   Overcast
4:51 AM 73.9 °F - 66.9 °F 79% 29.61 in 8.0 mi SSE 12.7 mph 23.0 mph N/A   Overcast
5:51 AM 73.0 °F - 66.9 °F 81% 29.69 in 7.0 mi South 5.8 mph - 0.00 in Rain Light Rain
6:51 AM 72.0 °F - 68.0 °F 87% 29.70 in 6.0 mi Calm Calm - 0.00 in Rain Light Rain
7:02 AM 62.1 °F - 59.0 °F 90% 29.75 in 6.0 mi WNW 9.2 mph 18.4 mph 0.00 in Rain Light Rain
7:10 AM 57.9 °F - 55.0 °F 90% 29.76 in 8.0 mi WNW 11.5 mph 20.7 mph 0.00 in Rain Light Rain
7:17 AM 57.0 °F - 54.0 °F 89% 29.75 in 9.0 mi NW 10.4 mph 20.7 mph 0.00 in Rain Light Rain
7:39 AM 52.0 °F - 48.9 °F 89% 29.79 in 5.0 mi NNW 10.4 mph 23.0 mph 0.05 in Rain Light Rain
7:49 AM 50.0 °F - 46.4 °F 87% 29.79 in 8.0 mi NNW 10.4 mph 24.2 mph 0.05 in Rain Light Rain
7:51 AM 50.0 °F - 46.9 °F 89% 29.78 in 9.0 mi NNW 15.0 mph 24.2 mph 0.05 in Rain Light Rain
8:09 AM 48.9 °F - 46.0 °F 90% 29.80 in 5.0 mi NNW 11.5 mph 24.2 mph 0.00 in Rain Light Rain
8:27 AM 48.0 °F - 46.0 °F 93% 29.81 in 6.0 mi NNW 9.2 mph 20.7 mph 0.02 in Rain Light Rain
8:51 AM 46.9 °F - 45.0 °F 93% 29.83 in 1.8 mi NW 12.7 mph 23.0 mph 0.04 in Rain Rain
9:19 AM 46.9 °F - 44.1 °F 90% 29.86 in 3.0 mi NNW 9.2 mph 21.9 mph 0.05 in Rain Light Rain
9:35 AM 46.0 °F 39.9 °F 44.1 °F 93% 29.86 in 6.0 mi NNW 13.8 mph 23.0 mph 0.06 in Rain Light Rain
9:51 AM 46.9 °F - 44.1 °F 90% 29.87 in 10.0 mi NNW 9.2 mph 20.7 mph 0.06 in Rain Light Rain
10:19 AM 46.0 °F 39.6 °F 44.1 °F 93% 29.89 in 1.8 mi NNW 15.0 mph 25.3 mph 0.04 in Rain Heavy Rain
10:28 AM 46.0 °F 41.4 °F 43.0 °F 89% 29.90 in 1.0 mi NNW 9.2 mph 26.5 mph 0.12 in Rain Rain
10:32 AM 46.0 °F 40.2 °F 43.0 °F 89% 29.90 in 2.0 mi NW 12.7 mph 25.3 mph 0.13 in Rain Rain
10:37 AM 45.0 °F 38.5 °F 43.0 °F 93% 29.91 in 4.0 mi NNW 13.8 mph 24.2 mph 0.13 in Rain Light Rain
10:47 AM 44.6 °F 40.2 °F 42.8 °F 93% 29.91 in 3.0 mi NNW 8.1 mph 27.6 mph 0.15 in Rain Light Rain
10:51 AM 45.0 °F 38.5 °F 43.0 °F 93% 29.90 in 4.0 mi NNW 13.8 mph 25.3 mph 0.15 in Rain Light Rain
11:01 AM 45.0 °F 38.2 °F 43.0 °F 93% 29.92 in 8.0 mi NNW 15.0 mph 23.0 mph 0.00 in Rain Light Rain
11:10 AM 45.0 °F 38.9 °F 42.1 °F 90% 29.92 in 10.0 mi NNW 12.7 mph 21.9 mph 0.00 in   Overcast
11:13 AM 45.0 °F 38.9 °F 42.1 °F 90% 29.92 in 10.0 mi NNW 12.7 mph 24.2 mph 0.00 in   Overcast
11:51 AM 45.0 °F 38.5 °F 42.1 °F 90% 29.93 in 10.0 mi NNW 13.8 mph 20.7 mph 0.00 in   Overcast
12:51 PM 46.9 °F - 44.1 °F 90% 29.91 in 10.0 mi NNW 11.5 mph 21.9 mph 0.00 in   Overcast
12:58 PM 46.9 °F - 44.1 °F 90% 29.92 in 10.0 mi NNW 11.5 mph 21.9 mph N/A   Overcast
1:26 PM 48.9 °F - 44.1 °F 83% 29.91 in 10.0 mi NNW 8.1 mph - N/A   Overcast
1:51 PM 50.0 °F - 44.1 °F 80% 29.90 in 10.0 mi Variable 4.6 mph 18.4 mph N/A   Overcast
2:43 PM 50.0 °F - 43.0 °F 77% 29.90 in 10.0 mi NNW 9.2 mph 17.3 mph N/A   Overcast
2:51 PM 51.1 °F - 43.0 °F 74% 29.88 in 10.0 mi NNW 9.2 mph 20.7 mph N/A   Overcast
3:51 PM 55.0 °F - 45.0 °F 69% 29.86 in 10.0 mi North 10.4 mph 19.6 mph N/A   Overcast
4:51 PM 57.0 °F - 45.0 °F 64% 29.84 in 10.0 mi North 12.7 mph 19.6 mph N/A   Overcast
5:51 PM 57.9 °F - 44.1 °F 60% 29.83 in 10.0 mi North 9.2 mph 18.4 mph N/A   Mostly Cloudy
6:51 PM 55.0 °F - 43.0 °F 64% 29.86 in 10.0 mi NNW 9.2 mph 19.6 mph N/A   Clear
7:51 PM 53.1 °F - 43.0 °F 69% 29.89 in 10.0 mi North 6.9 mph - N/A   Mostly Cloudy
8:51 PM 51.1 °F - 42.1 °F 71% 29.91 in 10.0 mi North 8.1 mph - N/A   Clear
9:51 PM 48.9 °F - 41.0 °F 74% 29.94 in 10.0 mi North 5.8 mph - N/A   Clear
10:51 PM 48.0 °F - 39.9 °F 74% 29.95 in 10.0 mi North 9.2 mph 19.6 mph N/A   Clear
11:51 PM 46.9 °F - 39.0 °F 74% 29.98 in 10.0 mi North 6.9 mph - N/A   Clear